This is the latest recevied weather packets stored in our database for station/object EA3FL-15. If no packets are shown the sender has not sent any weather packets the latest 1 day(s).
| Time | Temp. | Humidity | Pressure | Rain* | Wind** | Luminosity | Snow |
|---|---|---|---|---|---|---|---|
| 1778103394 | 17.22° C | 100% | 1017.3 hPa | - | - | - | - |
| 1778102494 | 17.22° C | 100% | 1017.4 hPa | - | - | - | - |
| 1778099794 | 16.11° C | 100% | 1017 hPa | - | - | - | - |
| 1778098894 | 16.67° C | 100% | 1016.8 hPa | - | - | - | - |
| 1778097994 | 16.67° C | 100% | 1016.6 hPa | - | - | - | - |
| 1778097094 | 16.67° C | 100% | 1016.2 hPa | - | - | - | - |
| 1778096194 | 17.78° C | 100% | 1015.8 hPa | - | - | - | - |
| 1778094394 | 17.78° C | 100% | 1015.5 hPa | - | - | - | - |
| 1778093494 | 18.89° C | 100% | 1015.3 hPa | - | - | - | - |
| 1778092594 | 18.33° C | 100% | 1015.1 hPa | - | - | - | - |
| 1778091694 | 19.44° C | 100% | 1014.9 hPa | - | - | - | - |
| 1778090794 | 19.44° C | 100% | 1014.7 hPa | - | - | - | - |
| 1778089894 | 20° C | 100% | 1014.6 hPa | - | - | - | - |
| 1778088994 | 20° C | 100% | 1014.5 hPa | - | - | - | - |
| 1778088094 | 20° C | 100% | 1014.4 hPa | - | - | - | - |
| 1778086294 | 21.11° C | 100% | 1014.2 hPa | - | - | - | - |
| 1778085394 | 23.89° C | 100% | 1014.1 hPa | - | - | - | - |
| 1778084494 | 23.33° C | 100% | 1014.1 hPa | - | - | - | - |
| 1778083590 | 22.22° C | 99% | 1014.1 hPa | - | - | - | - |
| 1778079096 | 20.56° C | 90% | 1014.4 hPa | - | - | - | - |
| 1778076394 | 20.56° C | 100% | 1014.7 hPa | - | - | - | - |
| 1778074587 | 20° C | 97% | 1014.8 hPa | - | - | - | - |
| 1778073686 | 20° C | 100% | 1015 hPa | - | - | - | - |
| 1778069185 | 20° C | 88% | 1015.3 hPa | - | - | - | - |
| 1778068285 | 18.89° C | 95% | 1015.2 hPa | - | - | - | - |
* Rain since midnight (hover to see other rain measurements)
** Current wind speed in m/s (hover to see current wind gust speed)